네이버 하비 코리아

제목 작성자 내용

No 제목 작성자 등록일 조회
133 [행사] 2023년 상반기 결산 고객사은행사 안내 !!! 네이버하비 2023-08-07 6510
132 [행사] 2023년 탁상용 Calendar 증정 안내 !!! 네이버 2022-12-19 2298
131 [공지] 2021년 결산 고객사은행사 당첨자 안내 !!! 네이버 2022-01-22 2406
130 [공지] 12월 25일 성탄절 오프라인 매장 영업 안내 !!! 네이버 2021-12-24 1584
129 [행사] 2021년 결산 고객사은행사 안내 !!! 네이버 2021-12-19 5051
128 [공지] 2020년 결산 고객사은행사 당첨자 안내 !!! 네이버 2021-01-24 2103
127 [공지] 12월 25일 성탄절 오프라인 매장 영업 안내 !!! 네이버 2020-12-23 1786
126 [행사] 2020년 결산 고객사은행사 안내 !!! 네이버 2020-12-13 5843
125 [행사] 각종 메이커 특가 판매 안내 !!! 네이버 2020-07-21 19007
124 [행사] AFVClub/HobbyBoss 특가 판매 안내 !!! 네이버 2020-06-19 13969
123 [공지] 2019년 결산 고객사은행사 당첨자 안내 !!! 네이버 2020-02-09 2331
122 [행사] 2019년 결산 고객사은행사 안내 !!! 네이버 2019-12-08 5912
121 [행사] Studio 27Tabu Design 기간 한정 특별할인판매 안내 !!! 네이버 2019-07-31 4830
120 [공지] 2019년 상반기 결산 고객사은행사 당첨자 안내 !!! 네이버 2019-07-28 1994
119 [행사] 2019년 상반기 결산 고객사은행사 안내 !!! 네이버 2019-06-23 5009
118 [행사] 창립 40주년 기념 고객사은행사 안내 !!! 네이버 2019-01-20 6555
117 [공지] 2018년 결산 고객사은행사 당첨자 안내 !!! 네이버 2019-01-20 1947
116 [행사] 2018년 결산 고객사은행사 안내 !!! 네이버 2018-12-09 6256
115 [공지] 2018년 상반기 결산 고객사은행사 당첨자 안내 !!! 네이버 2018-08-12 2232
114 [행사] 2018년 상반기 결산 고객사은행사 안내 !!! 네이버 2018-07-01 5745
113 [공지] 2017년 결산 고객사은행사 당첨자 안내 !!! 네이버 2018-01-21 2625
112 [행사] 'Artwox 목갑판 고별 할인 판매' 네이버 2018-01-07 3611
111 [행사] 2017년 결산 고객사은행사 안내 !!! 네이버 2017-12-10 6956
110 [행사] Trumpeter 한정특가 행사 안내 !!! 네이버 2017-12-09 8552
109 [행사] Kinetic 제품 증정 행사 안내 !!! 네이버 2017-06-07 3984
108 [공지] 2016년 결산 고객사은행사 당첨자 안내 !!! 네이버 2017-01-30 2905
107 [행사] 2016년 결산 고객사은행사 안내 !!! 네이버 2016-12-04 7931
106 [특가행사 3탄] Bronco Models 한정특가 안내 !!! 네이버 2016-06-23 14404
105 [특가행사 2탄] MiniArt 한정특가 안내 !!! 네이버 2016-06-21 9963
104 [공지] 홍대역 매장 이전행사 당첨자 안내 네이버 2016-06-11 2586
103 [특가행사 1탄] AFV Club 한정특가 안내 !!! 네이버 2016-06-07 15043
102 [행사] 홍대역 매장 이전 기념 행사 안내 !! 네이버 2016-04-29 9301
101 [행사] Bandai 4월 특가 판매 안내 !!! 네이버 2016-04-02 7388
100 [행사] E.T.Model 할인 판매 안내 !!! 네이버 2016-03-17 2550
99 [공지] 2015년 결산 행사 당첨자 안내 !!! 네이버 2016-01-30 2269
98 [행사] 2015년 결산 고객사은행사 안내 !!! 네이버 2015-12-12 7965
97 [행사] 쿵스 스틱사포 세트 출시 행사 안내 !! 네이버 2015-10-24 2365
96 [행사] Gaianotes 사포 증정 행사 안내 !! 네이버 2015-08-24 2297
95 [공지] 상반기 결산 행사 당첨자 안내 !!! 네이버 2015-08-23 2001
94 [행사] 2015년 상반기 결산 사은 행사 네이버 2015-06-28 13145
93 [공지] 설맞이 고객사은행사 당첨자 안내 !! 네이버 2015-03-29 1605
92 [행사] 설맞이 고객사은행사 안내 !! 네이버 2015-02-08 12629
91 [공지] 2014년 결산 행사 당첨자 안내 네이버 2015-01-22 1892
90 [행사] 2014년 결산 고객사은행사 안내 !!! 네이버 2014-12-07 12042
89 [행사] Trumpeter 한정특가 행사 안내 !!! 네이버 2014-11-12 4716
88 [공지] 상반기 결산 사은행사 당첨자 발표 !!! 네이버 2014-08-08 1925
87 [행사] Lionroar 기간 한정 특별할인판매 안내 !!! 네이버 2014-07-03 3979
86 [행사] 2014년 상반기 결산 행사 !!! 네이버 2014-06-15 4899
85 [공지] 2013년 고객사은행사 당첨자 발표 !!! 네이버 2014-01-20 1725
84 [행사] 2013년 결산 고객사은행사 !!! 네이버 2013-12-16 9897

이전 [ 1 ][ 2 ][ 3 ] 다음

회사소개/약도/입금계좌 | 이용안내 | 사이트맵 | 개인정보처리방침 | 이용약관 | 신용카드 내역조회 | 인재 채용

(주)엔하비 | 사업자등록번호 647-86-03076 | 대표 이수영 | 통신판매업신고번호 제2023-서울마포-2109호 [사업자정보확인]
서울특별시 마포구 연희로 11 (동교동, 한국특허기술진흥원빌딩) 1층 [홍대입구역 3번 출구] | Hosting by Smileserv
Tel 02)3141-9845 | Fax 02)3141-9846 | E-mail admin@modelsale.com

(주)엔하비는 공정거래위원회 심의 표준약관을 사용합니다. 이미지와 컨텐츠의 저작권은 (주)엔하비에 있으며, 무단복제나 도용은 저작권법에 의거하여 처벌받을 수 있습니다.
Copyright ⓒ2001~2023. Neighbor Hobby Korea All rights reserved.